Regional Weather Roundup
Issued by NWS

Home | Current Version | Previous Version | Graphics & Text | Print | Product List | Glossary On
Versions: 1 2 3 4 5 6 7 8 9 10 11 12 13 14 15 16 17 18 19 20 21 22 23 24 25 26 27 28
000
ASUS45 KPSR 100210
RWRAZ

ARIZONA HOURLY REGIONAL WEATHER ROUNDUP
NATIONAL WEATHER SERVICE PHOENIX AZ
700 PM MST FRI DEC 09 2016

NOTE: FAIR INDICATES FEW OR NO CLOUDS BELOW 12,000 FEET WITH NO
SIGNIFICANT WEATHER AND/OR OBSTRUCTIONS TO VISIBILITY.

AZZ001>003-036-100300-
NORTHWEST ARIZONA

CITY           SKY/WX    TMP DP  RH WIND       PRES   REMARKS
BULLHEAD CITY  PTCLDY    59  19  21 N13G18    30.18S
KINGMAN        CLEAR     44  29  55 CALM      30.21S
$$

AZZ004>008-015-016-018-100300-
NORTH CENTRAL ARIZONA

CITY           SKY/WX    TMP DP  RH WIND       PRES   REMARKS
GRAND CANYON   CLEAR     31  30  96 NE5       30.28R WCI  26
WILLIAMS       CLEAR     34  30  86 SE7       30.27R WCI  28
PRESCOTT       PTCLDY    40  33  76 SW5       30.23R
FLAGSTAFF      CLEAR     32  29  88 CALM      30.27R
PAYSON         MOCLDY    46  32  57 E3        30.26S
PAGE           CLEAR     40  15  36 CALM      30.24S
$$

AZZ009>014-017-100300-
NORTHEAST ARIZONA

CITY           SKY/WX    TMP DP  RH WIND       PRES   REMARKS
WINSLOW        PTCLDY    41  26  55 W3        30.24R
SAINT JOHNS    PTCLDY    40  26  57 S7        30.24R
WINDOW ROCK    PTCLDY    35  26  69 CALM      30.28S
SHOW LOW       PTCLDY    39  28  65 S9        30.28R WCI  33
$$

AZZ023-100300-
GREATER PHOENIX AREA

CITY           SKY/WX    TMP DP  RH WIND       PRES   REMARKS
PHOENIX        MOCLDY    63  39  41 W3        30.12R
BUCKEYE          N/A     57  39  51 NW6       30.15R
GLENDALE       MOCLDY    63  39  42 CALM      30.13S
LUKE AFB       MOCLDY    60  42  52 NW5       30.11S
DEER VALLEY    MOCLDY    61  39  44 CALM      30.12S
SCOTTSDALE     MOCLDY    63  38  39 CALM      30.14R
MESA-FALCON    MOCLDY   N/A N/A N/A CALM      30.10S
MESA-GATEWAY   CLEAR     61  37  41 CALM      30.13S
CHANDLER       CLEAR     59  39  47 W8        30.13
$$

AZZ027-028-100300-
SOUTHWEST MARICOPA COUNTY AND PINAL COUNTY

CITY           SKY/WX    TMP DP  RH WIND       PRES   REMARKS
CASA GRANDE    NOT AVBL
GILA BEND      CLEAR     60  37  43 S3        30.12R
$$

AZZ503-504-507>509-100300-
SOUTHEAST ARIZONA

CITY           SKY/WX    TMP DP  RH WIND       PRES   REMARKS
TUCSON         MOCLDY    60  35  39 CALM      30.17R
DAVIS-MONTHAN  MOCLDY    59  34  38 N5        30.16R
RYAN FIELD     CLEAR     57  36  44 W6        30.17R
NOGALES        CLOUDY    57  31  37 CALM      30.17R
SIERRA VISTA   CLOUDY    53  29  40 CALM      30.24R
DOUGLAS        MOCLDY    50  32  50 N9        30.21R
SAFFORD        MOCLDY    49  31  49 E8        30.22R
$$

AZZ020-021-025-026-031-100300-
SOUTHWEST ARIZONA

CITY           SKY/WX    TMP DP  RH WIND       PRES   REMARKS
YUMA           CLOUDY    64  24  21 N6        30.13R
$$

CAZ031-033-041-043-047-048-061-100300-
SOUTHERN CALIFORNIA

CITY           SKY/WX    TMP DP  RH WIND       PRES   REMARKS
DOWNTOWN L.A.  PTCLDY    59  57  93 CALM      30.16R
L.A. AIRPORT   CLOUDY    60  59  96 CALM      30.16R
SAN DIEGO      MOCLDY    61  55  81 N9        30.18R
BURBANK        CLEAR     59  52  77 S3        30.15R
ONTARIO        PTCLDY    58  47  66 SW5       30.15S
RIVERSIDE      CLEAR     61  48  62 CALM      30.16R
PALM SPRINGS   CLEAR     62  42  47 CALM      30.15S
EL CENTRO NAS  MOCLDY    61  28  28 CALM      30.14S
IMPERIAL       MOCLDY    63  31  30 CALM      30.12S
BLYTHE         MOCLDY    59  27  29 E5        30.15R
NEEDLES        CLEAR     60  18  19 NW8       30.17F
$$

NVZ020-UTZ003-100300-
SOUTHERN NEVADA-UTAH

CITY           SKY/WX    TMP DP  RH WIND       PRES   REMARKS
LAS VEGAS      MOCLDY    54  13  19 CALM      30.22R
SALT LAKE CITY CLOUDY    33  29  85 SW3       30.09F
$$

NMZ009-TXZ055-100300-
NEW MEXICO-WEST TEXAS

CITY           SKY/WX    TMP DP  RH WIND       PRES   REMARKS
ALBUQUERQUE    CLOUDY    36  25  64 E8        30.30R WCI  30
EL PASO        PTCLDY    43  31  62 N5        30.29S
$$


........................KEY........................
SKY/WX - SKY CONDITION/WEATHER
TMP    - TEMPERATURE IN FAHRENHEIT
DP     - DEW POINT IN FAHRENHEIT
RH     - RELATIVE HUMIDITY IN PERCENT
WIND   - DIRECTION AND SPEED IN MILES PER HOUR (MPH)
VRB    - VARIABLE WIND DIRECTION
PRES   - MEAN SEA LEVEL PRESSURE IN INCHES OF MERCURY
         F - FALLING PRESSURE   R - RISING PRESSURE
         S - STEADY PRESSURE
VSB    - VISIBILITY IN MILES
HX     - HEAT INDEX IN FAHRENHEIT
WCI    - WIND CHILL INDEX IN FAHRENHEIT
TC     - TEMPERATURE IN CELSIUS WHICH IS ALSO KNOWN AS
         TEMPERATURE IN CENTIGRADE
AFB    - AIR FORCE BASE
         LUKE AFB IS LUKE AIR FORCE BASE
         DAVIS-MONTHAN IS DAVIS-MONTHAN AIR FORCE BASE
NAS    - NAVAL AIR STATION
         EL CENTRO NAS IS EL CENTRO NAVAL AIR STATION
N/A    - NOT AVAILABLE





USA.gov is the U.S. government's official web portal to all federal, state and local government web resources and services.